Showing default

LIME, 62648

Orbit data source: Space-Track

LIME, 62648 is an American payload satellite in SSO that was launched on Tue, 14 Jan 2025 UTC via an FALCON 9 launch vehicle from the Air Force Western Test Range (AFWTR). Payload-class satellites include a variety of spacecraft equipped with specific instruments for various scientific and technological missions. These include communications satellites like Starlink; space stations such as the ISS; scientific satellites like the Hubble; Earth observation satellites from companies like Planet Labs, Umbra, and HawkEye 360; GPS; miniature CubeSats for education and research; and military/defense satellites.

Loading next visibility...
Identifier
62648, 2025-009AR
Orbit
SSO
Country
Flag of USUS
Related business
Manufacturer
NOVI
Mission
Operational Commercial Technology
Bus & Motor
CUBESAT 3U, Unknown motor
Mass
~4 kg wet, ~4 kg dry
Launch date (UTC)
2025-01-14 (9 months ago)
Launch vehicle
FALCON 9
Launch site
Air Force Western Test Range (AFWTR)
Object type
Payload
Rocket body
Debris
Shape & HBR
Box + 2 Pan, 0.1 m
Radar Cross Section
0.035 m², Small (<0.1 m²)

Expand to show TLE details & history
Last TLE update: 10 hours ago

TLE from 10 hours ago
0 LIME
1 62648U 25009AR  25286.57969654  .00016632  00000-0  68345-3 0  9993
2 62648  97.4159   5.5025 0003134 124.3965 235.7569 15.24253455 41313
Epoch: 2025-10-13T13:54Z
TLE epoch observation values (Epoch: 2025-10-13T13:54:45.781Z)
Latitude
-0°
Longitude
134.4313°
Altitude
497.336 km
Speed
7.615 km/s
True Right ascension
00h 22m 00s
True Declination
0° 00' 00"
Sunlit
Object was in full shadow at epoch
Visualization orbit readout
Latitude
Unknown
Longitude
Unknown
Altitude
Unknown
Speed
Unknown
Apparent Right ascension
Unknown
Apparent Declination
Unknown
Sunlit
N/A
Visualization observer readout
Local Sidereal Time
18:51:37
Azimuth
Unknown
Elevation
Unknown
Doppler factor
Unknown
Orbital elements
Apogee altitude
492.141 km
Perigee altitude
487.836 km
Semi-major axis
6,868.126 km
Eccentricity
0.00031
Inclination
97.4159°
RAAN
5.5025°
Arg. of periapsis
124.3965°
True anomaly
235.72722°
Mean anomaly
235.7569°
Eccentric anomaly
235.74206°
Mean motion
3.81317 °/min
Orbital period
94.41 mins
BSTAR
0.00068345
Loading maneuver chart data...
Computing Atmospheric mass density...
Loading historical data...
Loading historical data...
Loading historical data...
Loading historical data...
Loading historical data...
Loading historical data...
Loading historical data...

Documentation

Showing up to 5 results
|